TimeEDT,TemperatureF,Dew PointF,Humidity,Sea Level PressureIn,VisibilityMPH,Wind Direction,Wind SpeedMPH,Gust SpeedMPH,PrecipitationIn,Events,Conditions,WindDirDegrees,DateUTC
12:55 AM,57.0,54.0,89,30.00,10.0,Calm,Calm,-,N/A,,Clear,0,2013-08-12 04:55:00
1:55 AM,55.9,54.0,93,29.99,10.0,SSW,3.5,-,N/A,,Clear,200,2013-08-12 05:55:00
2:55 AM,55.0,52.0,89,29.99,10.0,Calm,Calm,-,N/A,,Clear,0,2013-08-12 06:55:00
3:55 AM,55.9,53.1,90,29.97,10.0,Calm,Calm,-,N/A,,Clear,0,2013-08-12 07:55:00
4:55 AM,55.0,53.1,93,29.96,10.0,SE,3.5,-,N/A,,Clear,140,2013-08-12 08:55:00
5:42 AM,55.0,53.1,93,29.96,10.0,East,3.5,-,N/A,,Scattered Clouds,80,2013-08-12 09:42:00
5:55 AM,55.0,54.0,96,29.96,9.0,NE,3.5,-,N/A,,Mostly Cloudy,40,2013-08-12 09:55:00
6:55 AM,55.9,54.0,93,29.96,10.0,East,3.5,-,N/A,,Overcast,80,2013-08-12 10:55:00
7:23 AM,55.9,55.0,97,29.96,10.0,Calm,Calm,-,N/A,,Overcast,0,2013-08-12 11:23:00
7:55 AM,57.9,55.9,93,29.96,10.0,Calm,Calm,-,N/A,,Overcast,0,2013-08-12 11:55:00
8:55 AM,61.0,59.0,93,29.94,7.0,SE,3.5,-,N/A,,Overcast,130,2013-08-12 12:55:00
9:55 AM,63.0,60.1,90,29.94,9.0,WSW,5.8,-,N/A,,Overcast,240,2013-08-12 13:55:00
10:17 AM,64.0,60.1,87,29.93,10.0,NW,3.5,-,N/A,,Overcast,310,2013-08-12 14:17:00
10:48 AM,64.9,60.1,84,29.92,10.0,Calm,Calm,-,0.01,,Overcast,0,2013-08-12 14:48:00
10:55 AM,66.0,60.1,81,29.92,10.0,Calm,Calm,-,0.01,,Mostly Cloudy,0,2013-08-12 14:55:00
11:43 AM,66.0,60.1,81,29.90,10.0,Calm,Calm,-,N/A,Thunderstorm,Overcast,0,2013-08-12 15:43:00
11:52 AM,66.2,59.0,78,29.90,10.0,South,4.6,-,N/A,,Overcast,180,2013-08-12 15:52:00
11:55 AM,66.9,60.1,79,29.90,10.0,South,3.5,-,N/A,,Overcast,180,2013-08-12 15:55:00
12:46 PM,70.0,60.1,71,29.89,10.0,Variable,4.6,-,N/A,Thunderstorm,Overcast,0,2013-08-12 16:46:00
12:55 PM,69.1,61.0,75,29.88,10.0,NW,4.6,-,N/A,Thunderstorm,Overcast,310,2013-08-12 16:55:00
1:18 PM,69.1,59.0,70,29.89,10.0,Calm,Calm,-,0.00,Rain-Thunderstorm,Light Thunderstorms and Rain,0,2013-08-12 17:18:00
1:33 PM,70.0,62.1,76,29.88,10.0,West,5.8,-,0.00,Thunderstorm,Mostly Cloudy,280,2013-08-12 17:33:00
1:55 PM,70.0,59.0,68,29.87,10.0,Variable,4.6,-,0.00,,Partly Cloudy,0,2013-08-12 17:55:00
2:55 PM,70.0,55.0,59,29.86,10.0,Variable,3.5,-,N/A,,Scattered Clouds,0,2013-08-12 18:55:00
3:03 PM,70.0,55.9,61,29.87,10.0,SW,4.6,-,N/A,Thunderstorm,Thunderstorm,220,2013-08-12 19:03:00
3:24 PM,64.9,59.0,81,29.89,1.8,SW,21.9,28.8,0.04,Rain-Thunderstorm,Heavy Thunderstorms and Rain,230,2013-08-12 19:24:00
3:34 PM,61.0,54.0,78,29.86,3.0,SW,10.4,24.2,0.09,Rain-Thunderstorm,Light Thunderstorms and Rain,220,2013-08-12 19:34:00
3:55 PM,60.1,55.0,83,29.89,8.0,WSW,6.9,-,0.09,Rain-Thunderstorm,Light Rain,250,2013-08-12 19:55:00
4:07 PM,60.1,55.9,86,29.88,5.0,SSW,4.6,-,0.01,Rain,Light Rain,210,2013-08-12 20:07:00
4:55 PM,66.9,57.9,73,29.86,10.0,WNW,6.9,-,0.02,,Mostly Cloudy,290,2013-08-12 20:55:00
5:55 PM,66.9,59.0,76,29.86,10.0,West,10.4,-,N/A,,Clear,270,2013-08-12 21:55:00
6:55 PM,64.0,55.0,73,29.87,10.0,WNW,9.2,-,N/A,,Mostly Cloudy,300,2013-08-12 22:55:00
7:46 PM,60.1,54.0,80,29.88,10.0,WNW,13.8,20.7,N/A,,Overcast,290,2013-08-12 23:46:00
7:53 PM,60.8,53.6,77,29.88,10.0,WNW,11.5,20.7,N/A,,Overcast,290,2013-08-12 23:53:00
7:55 PM,60.1,54.0,80,29.88,10.0,WNW,11.5,20.7,N/A,,Mostly Cloudy,290,2013-08-12 23:55:00
8:41 PM,59.0,54.0,83,29.87,10.0,WNW,12.7,20.7,N/A,,Scattered Clouds,290,2013-08-13 00:41:00
8:55 PM,59.0,54.0,83,29.87,10.0,WNW,9.2,-,N/A,,Clear,290,2013-08-13 00:55:00
9:55 PM,57.0,51.1,81,29.88,10.0,NW,15.0,23.0,N/A,,Scattered Clouds,310,2013-08-13 01:55:00
10:55 PM,55.9,46.9,72,29.91,10.0,North,10.4,-,N/A,,Overcast,10,2013-08-13 02:55:00
11:08 PM,55.9,46.9,72,29.91,10.0,North,11.5,17.3,N/A,,Overcast,360,2013-08-13 03:08:00
11:55 PM,55.0,45.0,69,29.91,10.0,North,4.6,-,N/A,,Mostly Cloudy,350,2013-08-13 03:55:00